COSMOS 2143 DEB, 57724

Orbit data source: Space-Track

COSMOS 2143 DEB, 57724 is space debris in LEO originally from a launch on Thu, 16 May 1991 UTC launched from the Plesetsk Missile And Space Complex (PKMTR). Debris objects in space refer to the collection of defunct objects orbiting the Earth. Examples of debris include non-operational satellites, rocket bodies, and fragments generated from explosions, collisions, or faulty payload assembly.

Loading next visibility...
Identifier
57724, 1991-033M
Orbit
LEO
Country
Flag of CISCIS
Related business
Manufacturer
NPO PM
Mission
Spacecraft
Bus & Motor
Unknown
Mass
Unknown
Launch date (UTC)
1991-05-16 (34 years ago)
Launch vehicle
Unknown
Launch site
Plesetsk Missile And Space Complex (PKMTR)
Object type
Payload
Rocket body
Debris
Shape & HBR
Unknown shape, 0.1 m
Radar Cross Section
Small (<0.1 m²)

Expand to show TLE details & history
Last TLE update: 1 day ago

TLE from 1 day ago
0 COSMOS 2143 DEB
1 57724U 91033M   25272.45494362  .00000548  00000-0  25782-2 0  9999
2 57724  82.5076  96.4126 0006145  39.3115 320.8427 12.73613728102336
Epoch: 2025-09-29T10:55Z
TLE epoch observation values (Epoch: 2025-09-29T10:55:07.128Z)
Latitude
-0.00009°
Longitude
-75.82553°
Altitude
1,366.308 km
Speed
7.177 km/s
True Right ascension
06h 25m 39s
True Declination
0° 00' 00"
Sunlit
Object was in daylight at epoch
Visualization orbit readout
Latitude
Unknown
Longitude
Unknown
Altitude
Unknown
Speed
Unknown
Apparent Right ascension
Unknown
Apparent Declination
Unknown
Sunlit
N/A
Visualization observer readout
Local Sidereal Time
12:43:13
Azimuth
Unknown
Elevation
Unknown
Doppler factor
Unknown
Orbital elements
Apogee altitude
1,369.319 km
Perigee altitude
1,359.804 km
Semi-major axis
7,742.699 km
Eccentricity
0.00061
Inclination
82.5076°
RAAN
96.4126°
Arg. of periapsis
39.3115°
True anomaly
320.79821°
Mean anomaly
320.8427°
Eccentric anomaly
320.82046°
Mean motion
3.1857 °/min
Orbital period
113.01 mins
BSTAR
0.0025782
Loading maneuver chart data...
Computing Atmospheric mass density...
Loading historical data...
Loading historical data...
Loading historical data...
Loading historical data...
Loading historical data...
Loading historical data...
Loading historical data...

Documentation

Showing up to 5 results
|